Time_in_sec,gx,gy,gz
1314891749.09251356,0.22299574,-0.08720504,-0.97091101
1314891749.14172387,0.22283821,-0.08727646,-0.97094076
1314891749.19304156,0.22276845,-0.08739780,-0.97094585
1314891749.24049997,0.22271114,-0.08736214,-0.97096221
1314891749.29252195,0.22248055,-0.08747223,-0.97100516
1314891749.34061217,0.22243943,-0.08766185,-0.97099748
1314891749.39249611,0.22282242,-0.08777783,-0.97089918
1314891749.44048929,0.22306664,-0.08771327,-0.97084894
1314891749.49248743,0.22325851,-0.08766444,-0.97080924
1314891749.54178524,0.22301956,-0.08778351,-0.97085340
1314891749.59260345,0.22301773,-0.08784548,-0.97084822
1314891749.64870358,0.22291150,-0.08776380,-0.97088000
1314891749.69293284,0.22407253,-0.08711140,-0.97067147
1314891749.74564767,0.22399669,-0.08713192,-0.97068713
1314891749.79357624,0.22397262,-0.08708235,-0.97069714
1314891749.84159374,0.22419528,-0.08705784,-0.97064793
1314891749.89262438,0.22594544,-0.08624713,-0.97031443
1314891749.94562793,0.22591836,-0.08645332,-0.97030239
1314891749.99262357,0.22602125,-0.08649550,-0.97027466
1314891750.04461288,0.22600779,-0.08667675,-0.97026162
1314891750.09362149,0.22587620,-0.08673250,-0.97028729
1314891750.14560246,0.22605529,-0.08661377,-0.97025618
1314891750.19287491,0.22768692,-0.08638336,-0.96989514
1314891750.24454713,0.22759478,-0.08625195,-0.96992846
1314891750.29362416,0.22774495,-0.08625630,-0.96989282
1314891750.34487605,0.22761781,-0.08628218,-0.96992037
1314891750.39353228,0.22820647,-0.08586740,-0.96981885
1314891750.44161725,0.22811990,-0.08581252,-0.96984407
1314891750.49247575,0.22813964,-0.08550750,-0.96986637
1314891750.54311228,0.22823923,-0.08560727,-0.96983413
1314891750.59344506,0.22796199,-0.08565752,-0.96989490
1314891750.64066935,0.22830231,-0.08492431,-0.96987933
1314891750.69361162,0.22832458,-0.08506216,-0.96986201
1314891750.74065495,0.22836342,-0.08503807,-0.96985498
1314891750.79261422,0.22843026,-0.08515755,-0.96982875
1314891750.84360480,0.22853837,-0.08507623,-0.96981042
1314891750.90550900,0.22889145,-0.08435548,-0.96979011
1314891750.94058681,0.22887459,-0.08421704,-0.96980612
1314891750.99259377,0.22873249,-0.08407017,-0.96985239
1314891751.04058313,0.22878132,-0.08420637,-0.96982905
1314891751.09260273,0.22862088,-0.08421003,-0.96986657
1314891751.14060140,0.22877830,-0.08414817,-0.96983482
1314891751.19481349,0.22869478,-0.08456940,-0.96981788
1314891751.24162006,0.22878320,-0.08438360,-0.96981321
1314891751.29509854,0.22875413,-0.08437389,-0.96982091
1314891751.34418845,0.22881717,-0.08413031,-0.96982720
1314891751.39415121,0.22900062,-0.08515099,-0.96969481
1314891751.44053459,0.22879063,-0.08508744,-0.96974995
1314891751.49253511,0.22868715,-0.08508635,-0.96977446
1314891751.54146671,0.22873392,-0.08508791,-0.96976329
1314891751.59252024,0.22846631,-0.08530194,-0.96980757
1314891751.64058805,0.22865444,-0.08524184,-0.96976852
1314891751.69280434,0.22983171,-0.08485661,-0.96952398
1314891751.74059129,0.22996255,-0.08499513,-0.96948082
1314891751.79260278,0.22988210,-0.08493369,-0.96950528
1314891751.84084368,0.22996519,-0.08486811,-0.96949132
1314891751.89258909,0.23113869,-0.08424940,-0.96926619
1314891751.94068241,0.23101026,-0.08409383,-0.96931031
1314891751.99257588,0.23090900,-0.08409117,-0.96933467
1314891752.04061270,0.23100841,-0.08413585,-0.96930711
1314891752.09250236,0.23115453,-0.08430248,-0.96925780
1314891752.14118791,0.23122193,-0.08437456,-0.96923545
1314891752.19262171,0.23130872,-0.08385359,-0.96925995
1314891752.24117899,0.23113878,-0.08366204,-0.96931704
1314891752.29250646,0.23103954,-0.08369261,-0.96933806
1314891752.34048772,0.23118866,-0.08384838,-0.96928904
1314891752.39254737,0.23104842,-0.08362682,-0.96934162
1314891752.44060421,0.23112589,-0.08354784,-0.96932996
1314891752.49266028,0.23098355,-0.08355838,-0.96936298
1314891752.54554152,0.23087979,-0.08350251,-0.96939252
1314891752.59416604,0.23094889,-0.08349040,-0.96937710
1314891752.64451289,0.23105016,-0.08315012,-0.96938222
1314891752.69356585,0.23079258,-0.08319757,-0.96943950
1314891752.74459362,0.23061711,-0.08288733,-0.96950783
1314891752.79366660,0.23052099,-0.08284501,-0.96953431
1314891752.84459925,0.23064599,-0.08270657,-0.96951640
1314891752.89351535,0.22954665,-0.08342708,-0.96971556
1314891752.94583917,0.22961552,-0.08321264,-0.96971768
1314891752.99364924,0.22946919,-0.08312153,-0.96976013
1314891753.04090619,0.22942562,-0.08327354,-0.96975739
1314891753.09274507,0.22937278,-0.08326814,-0.96977036
1314891753.14561152,0.22932898,-0.08292562,-0.96981006
1314891753.19348073,0.22808333,-0.08340886,-0.97006235
1314891753.24458647,0.22809042,-0.08327836,-0.97007189
1314891753.29269409,0.22816156,-0.08297158,-0.97008145
1314891753.34550643,0.22812633,-0.08298008,-0.97008901
1314891753.39355469,0.22679045,-0.08342713,-0.97036385
1314891753.44068789,0.22669541,-0.08331025,-0.97039610
1314891753.49262094,0.22677035,-0.08345702,-0.97036598
1314891753.54548049,0.22650032,-0.08352104,-0.97042354
1314891753.59361625,0.22658266,-0.08340598,-0.97041421
1314891753.64548492,0.22673978,-0.08296846,-0.97041502
1314891753.69348955,0.22667085,-0.08342973,-0.97039157
1314891753.74471021,0.22656188,-0.08369161,-0.97039447
1314891753.79250956,0.22646047,-0.08371252,-0.97041634
1314891753.84060383,0.22655652,-0.08397808,-0.97037097
1314891753.89349055,0.22824184,-0.08348989,-0.97001809
1314891753.94049501,0.22812045,-0.08359167,-0.97003788
1314891753.99417114,0.22818335,-0.08352147,-0.97002914
1314891754.04058886,0.22829728,-0.08323827,-0.97002667
1314891754.09430337,0.22834588,-0.08318118,-0.97002013
1314891754.14051914,0.22843805,-0.08300837,-0.97001323
1314891754.19045210,0.22893535,-0.08232205,-0.96995448
1314891754.24149489,0.22891648,-0.08232696,-0.96995851
1314891754.29251623,0.22893316,-0.08241254,-0.96994731
1314891754.34053564,0.22878148,-0.08233285,-0.96998986
1314891754.39252305,0.22886360,-0.08213934,-0.96998690
1314891754.44420505,0.22887999,-0.08203330,-0.96999200
1314891754.49250627,0.22884705,-0.08192647,-0.97000881
1314891754.54051757,0.22890540,-0.08178935,-0.97000661
1314891754.59259009,0.22885399,-0.08181226,-0.97001681
1314891754.64052367,0.22956534,-0.08153226,-0.96987228
1314891754.69348121,0.22942866,-0.08151724,-0.96990589
1314891754.74053788,0.22941000,-0.08142814,-0.96991779
1314891754.79254007,0.22927155,-0.08151408,-0.96994330
1314891754.84160495,0.22945919,-0.08151138,-0.96989916
1314891754.89252472,0.22942761,-0.08145716,-0.96991118
1314891754.94052958,0.22950639,-0.08128794,-0.96990674
1314891754.99262667,0.22959204,-0.08107867,-0.96990399
1314891755.04062963,0.22946991,-0.08103182,-0.96993680
1314891755.09360623,0.22951964,-0.08134553,-0.96989878
1314891755.14050722,0.22980620,-0.08103926,-0.96985656
1314891755.19647598,0.23096523,-0.08114847,-0.96957206
1314891755.24120116,0.23094000,-0.08088587,-0.96960002
1314891755.29361320,0.23082250,-0.08100968,-0.96961766
1314891755.34048533,0.23066856,-0.08100960,-0.96965430
1314891755.39361429,0.23081527,-0.08089108,-0.96962928
1314891755.44162369,0.23083633,-0.08104701,-0.96961125
1314891755.49244809,0.23107206,-0.08088160,-0.96956891
1314891755.54447770,0.23122594,-0.08075276,-0.96954296
1314891755.59261250,0.23116324,-0.08074222,-0.96955879
1314891755.64161158,0.23121175,-0.08058853,-0.96956001
1314891755.69296813,0.23069983,-0.08092609,-0.96965383
1314891755.74161339,0.23064305,-0.08095146,-0.96966522
1314891755.79258776,0.23086866,-0.08086641,-0.96961863
1314891755.84160829,0.23073236,-0.08065449,-0.96966872
1314891755.89360881,0.23142602,-0.08075025,-0.96949543
1314891755.94450068,0.23138348,-0.08073355,-0.96950698
1314891755.99261022,0.23141299,-0.08072074,-0.96950100
1314891756.04159832,0.23132288,-0.08080537,-0.96951546
1314891756.09261441,0.23129121,-0.08082262,-0.96952157
1314891756.14161944,0.23146939,-0.08091690,-0.96947118
1314891756.19250107,0.23090036,-0.08139411,-0.96956692
1314891756.24082947,0.23103457,-0.08149472,-0.96952650
1314891756.29360747,0.23102489,-0.08179290,-0.96950370
1314891756.34562039,0.23105584,-0.08184597,-0.96949184
1314891756.39360285,0.23121138,-0.08193481,-0.96944726
1314891756.44450140,0.23123002,-0.08174587,-0.96945876
1314891756.49262023,0.23136600,-0.08174276,-0.96942658
1314891756.54163289,0.23165519,-0.08159995,-0.96936955
1314891756.59361696,0.23150217,-0.08163092,-0.96940350
1314891756.64457846,0.23177777,-0.08165864,-0.96933530
1314891756.69364786,0.23185217,-0.08193161,-0.96929448
1314891756.74058676,0.23182502,-0.08185529,-0.96930742
1314891756.79249692,0.23182424,-0.08183515,-0.96930931
1314891756.84060669,0.23186948,-0.08159092,-0.96931907
1314891756.89247489,0.23198973,-0.08149930,-0.96929801
1314891756.94052768,0.23208155,-0.08159084,-0.96926833
1314891756.99258256,0.23191702,-0.08163636,-0.96930387
1314891757.04058576,0.23186618,-0.08167915,-0.96931243
1314891757.09361458,0.23189951,-0.08159070,-0.96931191
1314891757.14059782,0.23214640,-0.08155062,-0.96925618
1314891757.19252300,0.23166877,-0.08176453,-0.96935243
1314891757.24051332,0.23157102,-0.08179416,-0.96937329
1314891757.29254723,0.23176431,-0.08196822,-0.96931239
1314891757.34049773,0.23163539,-0.08188511,-0.96935023
1314891757.39249277,0.23152446,-0.08200729,-0.96936641
1314891757.44054055,0.23147431,-0.08184985,-0.96939169
1314891757.49253130,0.23135100,-0.08178605,-0.96942651
1314891757.54051685,0.23135859,-0.08163236,-0.96943765
1314891757.59257865,0.23140656,-0.08142049,-0.96944402
1314891757.64051986,0.23177637,-0.08131924,-0.96936417
1314891757.69482946,0.23138194,-0.08152127,-0.96944143
1314891757.74053216,0.23142490,-0.08130588,-0.96944926
1314891757.79352880,0.23142678,-0.08119446,-0.96945815
1314891757.84053111,0.23154457,-0.08122047,-0.96942784
1314891757.89324546,0.23176341,-0.08123783,-0.96937409
1314891757.94061923,0.23105183,-0.08149455,-0.96952240
1314891757.99361253,0.23088215,-0.08117381,-0.96958973
1314891758.04048252,0.23083417,-0.08117172,-0.96960133
1314891758.09249926,0.23083167,-0.08120575,-0.96959908
1314891758.14052963,0.23046860,-0.08142535,-0.96966702
1314891758.19351220,0.23055104,-0.08164537,-0.96962892
1314891758.24051833,0.23046770,-0.08159593,-0.96965290
1314891758.29251695,0.23035549,-0.08148035,-0.96968928
1314891758.34049582,0.23020182,-0.08144663,-0.96972861
1314891758.39261746,0.23041819,-0.08138738,-0.96968219
1314891758.44061708,0.22975140,-0.08201168,-0.96978780
1314891758.49250197,0.22989012,-0.08194771,-0.96976033
1314891758.54149199,0.23000593,-0.08181748,-0.96974387
1314891758.59362435,0.22991645,-0.08182712,-0.96976427
1314891758.64162683,0.22933031,-0.08220388,-0.96987119
1314891758.69262505,0.22922548,-0.08250238,-0.96987063
1314891758.74461770,0.22904612,-0.08246358,-0.96991630
1314891758.79259276,0.22910716,-0.08256322,-0.96989341
1314891758.84462404,0.22889673,-0.08259628,-0.96994028
1314891758.89255619,0.22862471,-0.08261235,-0.97000306
1314891758.94453025,0.22859545,-0.08246801,-0.97002224
1314891758.99363470,0.22851869,-0.08245647,-0.97004131
1314891759.04557681,0.22837455,-0.08222987,-0.97009449
1314891759.09259391,0.22832668,-0.08219418,-0.97010878
1314891759.14563346,0.22877791,-0.08225101,-0.96999765
1314891759.19262362,0.22753868,-0.08289271,-0.97023448
1314891759.24455976,0.22735525,-0.08290032,-0.97027683
1314891759.29363942,0.22738321,-0.08276829,-0.97028155
1314891759.34465218,0.22727430,-0.08275391,-0.97030829
1314891759.39362407,0.22666931,-0.08284673,-0.97044188
1314891759.44463253,0.22675328,-0.08273305,-0.97043196
1314891759.49265122,0.22661290,-0.08263696,-0.97047294
1314891759.54067063,0.22660931,-0.08261352,-0.97047577
1314891759.59261441,0.22672774,-0.08279319,-0.97043280
1314891759.64063215,0.22648279,-0.08266077,-0.97050128
1314891759.69260859,0.22597942,-0.08262227,-0.97062189
1314891759.74169564,0.22604039,-0.08278129,-0.97059415
1314891759.79275274,0.22583955,-0.08275855,-0.97064284
1314891759.84055805,0.22550684,-0.08274659,-0.97072121
1314891759.89358282,0.22538337,-0.08315775,-0.97071475
1314891759.94180465,0.22546215,-0.08310482,-0.97070099
1314891759.99465895,0.22547167,-0.08292995,-0.97071373
1314891760.04165316,0.22564014,-0.08284231,-0.97068207
1314891760.09254074,0.22544975,-0.08270776,-0.97073778
1314891760.14351368,0.22547229,-0.08238805,-0.97075973
1314891760.19252634,0.22519037,-0.08243385,-0.97082128
1314891760.24057579,0.22499209,-0.08240407,-0.97086978
1314891760.29250050,0.22496940,-0.08249301,-0.97086748
1314891760.34053516,0.22512164,-0.08238707,-0.97084119
1314891760.39254212,0.22516617,-0.08238909,-0.97083069
1314891760.44052839,0.22515465,-0.08239878,-0.97083254
1314891760.49246240,0.22491655,-0.08230273,-0.97089588
1314891760.54467297,0.22468893,-0.08241809,-0.97093880
1314891760.59066606,0.22485457,-0.08244181,-0.97089844
1314891760.64152336,0.22483676,-0.08290762,-0.97086289
1314891760.69253898,0.22459609,-0.08289333,-0.97091982
1314891760.74068475,0.22458750,-0.08279070,-0.97093056
1314891760.79453349,0.22458088,-0.08282043,-0.97092956
1314891760.84267735,0.22454391,-0.08281069,-0.97093894
1314891760.89351153,0.22410308,-0.08295813,-0.97102820
1314891760.94152975,0.22408108,-0.08298939,-0.97103060
1314891760.99259639,0.22422007,-0.08302772,-0.97099524
1314891761.04064608,0.22416246,-0.08318760,-0.97099486
1314891761.09253407,0.22439658,-0.08341368,-0.97092138
1314891761.14059305,0.22440699,-0.08332544,-0.97092655
1314891761.19258857,0.22396477,-0.08343135,-0.97101956
1314891761.24152851,0.22406329,-0.08336335,-0.97100268
1314891761.29262710,0.22383884,-0.08369963,-0.97102551
1314891761.34057617,0.22383201,-0.08370157,-0.97102692
1314891761.39261746,0.22388649,-0.08356125,-0.97102644
1314891761.44052219,0.22263799,-0.08404432,-0.97127178
1314891761.49311876,0.22286460,-0.08393449,-0.97122931
1314891761.54153037,0.22295274,-0.08397278,-0.97120577
1314891761.59261608,0.22309785,-0.08390989,-0.97117788
1314891761.64456296,0.22285879,-0.08396607,-0.97122791
1314891761.69249725,0.22286830,-0.08373229,-0.97124591
1314891761.74161720,0.22280829,-0.08342060,-0.97128650
1314891761.79318666,0.22287976,-0.08346626,-0.97126618
1314891761.84166265,0.22294271,-0.08331581,-0.97126465
1314891761.89262033,0.22267913,-0.08365344,-0.97129610
1314891761.94462395,0.22245078,-0.08374671,-0.97134038
1314891761.99262357,0.22236104,-0.08368636,-0.97136613
1314891762.04094744,0.22263633,-0.08370266,-0.97130167
1314891762.09260964,0.22271836,-0.08363691,-0.97128853
1314891762.14152312,0.22326727,-0.08415786,-0.97111749
1314891762.19363236,0.22326484,-0.08423575,-0.97111130
1314891762.24167633,0.22316694,-0.08409026,-0.97114641
1314891762.29263020,0.22316862,-0.08400056,-0.97115379
1314891762.34167528,0.22330906,-0.08402217,-0.97111963
1314891762.39258909,0.22353965,-0.08460257,-0.97101618
1314891762.44166636,0.22367476,-0.08443350,-0.97099979
1314891762.49364042,0.22373659,-0.08443725,-0.97098521
1314891762.54065967,0.22369819,-0.08430537,-0.97100552
1314891762.59260082,0.22370311,-0.08415507,-0.97101743
1314891762.64550686,0.22323241,-0.08449995,-0.97109580
1314891762.69263697,0.22346262,-0.08465983,-0.97102892
1314891762.74059153,0.22334616,-0.08466239,-0.97105549
1314891762.79264188,0.22338827,-0.08431233,-0.97107627
1314891762.84059286,0.22350396,-0.08442262,-0.97104006
1314891762.89257240,0.22281117,-0.08376564,-0.97125615
1314891762.94045472,0.22288376,-0.08361034,-0.97125287
1314891762.99356651,0.22292175,-0.08365193,-0.97124057
1314891763.04147315,0.22275004,-0.08368813,-0.97127685
1314891763.09514666,0.22282322,-0.08377879,-0.97125225
1314891763.14053631,0.22267354,-0.08347636,-0.97131261
1314891763.19470215,0.22270570,-0.08344991,-0.97130751
1314891763.24046850,0.22276396,-0.08323237,-0.97131282
1314891763.29423046,0.22265347,-0.08301377,-0.97135686
1314891763.34166431,0.22265461,-0.08296052,-0.97136115
1314891763.39413404,0.22229351,-0.08377024,-0.97137436
1314891763.44138074,0.22215021,-0.08357902,-0.97142361
1314891763.49351811,0.22189820,-0.08372666,-0.97146849
1314891763.54053211,0.22180833,-0.08375261,-0.97148678
1314891763.59351897,0.22192326,-0.08358172,-0.97147525
1314891763.64052105,0.22207924,-0.08418168,-0.97138780
1314891763.69248128,0.22216721,-0.08418604,-0.97136731
1314891763.74051070,0.22209535,-0.08414541,-0.97138726
1314891763.79351735,0.22209890,-0.08417857,-0.97138357
1314891763.84061956,0.22182867,-0.08420725,-0.97144283
1314891763.89315438,0.22113241,-0.08395043,-0.97162379
1314891763.94052005,0.22113710,-0.08390510,-0.97162663
1314891763.99353528,0.22103848,-0.08404677,-0.97163683
1314891764.04053068,0.22099806,-0.08410190,-0.97164125
1314891764.09351230,0.22100691,-0.08406446,-0.97164248
1314891764.14061522,0.22004233,-0.08514213,-0.97176756
1314891764.19360280,0.22025164,-0.08509975,-0.97172385
1314891764.24060512,0.22015115,-0.08506425,-0.97174973
1314891764.29361606,0.22012656,-0.08507915,-0.97175400
1314891764.34054923,0.22004200,-0.08507768,-0.97177328
1314891764.39347911,0.21969331,-0.08497652,-0.97186102
1314891764.44059181,0.21966710,-0.08499755,-0.97186510
1314891764.49108624,0.21980798,-0.08517607,-0.97181762
1314891764.54458070,0.21994221,-0.08507734,-0.97179590
1314891764.59361982,0.21988031,-0.08514974,-0.97180357
1314891764.64511871,0.21894820,-0.08558894,-0.97197542
1314891764.69252419,0.21885714,-0.08557406,-0.97199724
1314891764.74450183,0.21872233,-0.08566032,-0.97201999
1314891764.79359579,0.21892943,-0.08569886,-0.97196996
1314891764.84448862,0.21872064,-0.08567671,-0.97201892
1314891764.89285684,0.21700093,-0.08685181,-0.97230003
1314891764.94459414,0.21712532,-0.08684619,-0.97227277
1314891764.99288797,0.21724740,-0.08686445,-0.97224387
1314891765.04581213,0.21713473,-0.08701743,-0.97225536
1314891765.09355235,0.21726285,-0.08710916,-0.97221852
1314891765.14160943,0.21758517,-0.08733859,-0.97212585
1314891765.19478869,0.21754668,-0.08721604,-0.97214546
1314891765.24568772,0.21748879,-0.08708007,-0.97217061
1314891765.29248810,0.21745921,-0.08697200,-0.97218690
1314891765.34161353,0.21747408,-0.08711285,-0.97217096
1314891765.39258885,0.21851199,-0.08696430,-0.97195150
1314891765.44062424,0.21839839,-0.08712902,-0.97196228
1314891765.49245000,0.21829979,-0.08701627,-0.97199453
1314891765.54061842,0.21819994,-0.08701527,-0.97201704
1314891765.59263420,0.21832450,-0.08701506,-0.97198909
1314891765.64160752,0.21902181,-0.08704510,-0.97182951
1314891765.69354773,0.21908528,-0.08708380,-0.97181174
1314891765.74058795,0.21915000,-0.08692886,-0.97181102
1314891765.79259253,0.21919593,-0.08690687,-0.97180262
1314891765.84059024,0.21914724,-0.08676519,-0.97182626
1314891765.89258480,0.22054381,-0.08622187,-0.97155865
1314891765.94059134,0.22053121,-0.08608219,-0.97157390
1314891765.99345946,0.22043080,-0.08570086,-0.97163039
1314891766.04059148,0.22039899,-0.08574687,-0.97163355
1314891766.09354854,0.22043971,-0.08573016,-0.97162579
1314891766.14060068,0.22033367,-0.08589629,-0.97163517
1314891766.19352865,0.22085452,-0.08579304,-0.97152603
1314891766.24048519,0.22061468,-0.08573419,-0.97158572
1314891766.29251885,0.22043343,-0.08564421,-0.97163479
1314891766.34051704,0.22039555,-0.08547394,-0.97165838
1314891766.39352751,0.22033038,-0.08543025,-0.97167700
1314891766.44048858,0.21943009,-0.08614814,-0.97181733
1314891766.49352336,0.21914367,-0.08608971,-0.97188714
1314891766.54053164,0.21921060,-0.08596214,-0.97188334
1314891766.59348631,0.21931967,-0.08567665,-0.97188394
1314891766.64046812,0.21943941,-0.08578283,-0.97184755
1314891766.69350934,0.21894827,-0.08645447,-0.97189880
1314891766.74052978,0.21889727,-0.08623850,-0.97192948
1314891766.79361176,0.21879800,-0.08602523,-0.97197073
1314891766.84051228,0.21874860,-0.08607024,-0.97197786
1314891766.89246678,0.21863931,-0.08641309,-0.97197203
1314891766.94172072,0.21858754,-0.08644666,-0.97198069
